GW4612 Weather Reports


time (UTC)temp
C
wind
direction
speed
KPH
gust
KPH
rain 1hr
cm
rain 24hr
cm
rain mn
cm
humidity
%
barometer
mb
20260507231051 15 263 4.8 9.7 0.00 0.00 0.00 42 1012.4
20260507230547 15 256 1.6 3.2 0.00 0.00 0.00 41 1012.1
20260507230044 15 230 0.0 6.4 0.00 0.00 0.00 42 1012.0
20260507225538 15 265 6.4 16.1 0.00 0.00 0.00 42 1012.2
20260507225035 15 249 4.8 9.7 0.00 0.00 0.00 41 1012.2
20260507224531 15 298 3.2 12.9 0.00 0.00 0.00 41 1012.3
20260507224028 16 294 4.8 6.4 0.00 0.00 0.00 39 1012.2
20260507223524 16 237 9.7 12.9 0.00 0.00 0.00 38 1011.8
20260507223021 16 292 1.6 4.8 0.00 0.00 0.00 37 1011.9
20260507222518 16 280 4.8 6.4 0.00 0.00 0.00 37 1011.8
20260507222014 16 260 1.6 3.2 0.00 0.00 0.00 39 1011.8
20260507221511 16 235 6.4 12.9 0.00 0.00 0.00 36 1011.7
20260507221008 16 211 11.3 14.5 0.00 0.00 0.00 37 1011.6
20260507220505 16 243 6.4 11.3 0.00 0.00 0.00 37 1011.6
20260507220002 16 271 6.4 12.9 0.00 0.00 0.00 38 1011.6
20260507215458 16 194 4.8 9.7 0.00 0.00 0.00 42 1011.4
20260507214956 16 186 3.2 16.1 0.00 0.00 0.00 38 1011.3
20260507214453 16 273 11.3 14.5 0.00 0.00 0.00 38 1011.4
20260507213949 16 254 3.2 11.3 0.00 0.00 0.00 40 1011.1
20260507213445 16 316 6.4 11.3 0.00 0.00 0.00 36 1011.1
20260507212943 17 298 3.2 11.3 0.00 0.00 0.00 39 1011.1
20260507212438 16 325 4.8 11.3 0.00 0.00 0.00 36 1011.1
20260507211936 17 190 8.0 17.7 0.00 0.00 0.00 36 1011.0
20260507211432 17 268 6.4 17.7 0.00 0.00 0.00 36 1011.3
20260507210929 16 270 4.8 6.4 0.00 0.00 0.00 38 1011.2
20260507210426 17 269 6.4 14.5 0.00 0.00 0.00 38 1010.9
20260507205922 17 313 11.3 14.5 0.00 0.00 0.00 35 1011.0
20260507205420 17 265 14.5 17.7 0.00 0.00 0.00 34 1011.1
20260507204916 17 263 11.3 29.0 0.00 0.00 0.00 34 1011.1
20260507204412 17 230 6.4 9.7 0.00 0.00 0.00 36 1011.1
20260507203910 17 278 8.0 16.1 0.00 0.00 0.00 36 1010.9
20260507203408 18 222 6.4 9.7 0.00 0.00 0.00 36 1011.0
20260507202904 18 165 4.8 6.4 0.00 0.00 0.00 36 1010.7
20260507202400 18 316 6.4 16.1 0.00 0.00 0.00 36 1011.1
20260507201856 18 311 4.8 24.1 0.00 0.00 0.00 36 1011.2
20260507201351 19 334 6.4 11.3 0.00 0.00 0.00 35 1011.1
20260507200848 18 216 8.0 11.3 0.00 0.00 0.00 36 1011.1
20260507200344 18 263 11.3 12.9 0.00 0.00 0.00 35 1011.4
20260507195840 17 254 9.7 12.9 0.00 0.00 0.00 37 1011.2
20260507195337 18 261 9.7 17.7 0.00 0.00 0.00 36 1011.4
20260507194835 17 24 6.4 17.7 0.00 0.00 0.00 37 1011.3
20260507194331 17 276 9.7 17.7 0.00 0.00 0.00 35 1011.4
20260507193828 18 290 8.0 11.3 0.00 0.00 0.00 34 1011.3
20260507193325 17 293 11.3 17.7 0.00 0.00 0.00 35 1011.3
20260507192820 18 332 4.8 20.9 0.00 0.00 0.00 35 1011.6
20260507192318 17 234 11.3 16.1 0.00 0.00 0.00 38 1011.4
20260507191814 17 324 6.4 17.7 0.00 0.00 0.00 38 1011.2
20260507191310 17 257 4.8 24.1 0.00 0.00 0.00 39 1011.3
20260507190807 17 319 11.3 24.1 0.00 0.00 0.00 39 1011.1
20260507190306 17 349 6.4 12.9 0.00 0.00 0.00 37 1011.1
20260507185804 18 340 4.8 14.5 0.00 0.00 0.00 35 1011.3
20260507185300 18 318 12.9 20.9 0.00 0.00 0.00 35 1011.6
20260507184758 18 252 1.6 11.3 0.00 0.00 0.00 38 1011.4
20260507184256 18 308 14.5 22.5 0.00 0.00 0.00 37 1011.6
20260507183752 18 327 6.4 22.5 0.00 0.00 0.00 40 1011.3
20260507183249 18 254 8.0 16.1 0.00 0.00 0.00 37 1011.8
20260507182747 17 235 11.3 14.5 0.00 0.00 0.00 38 1011.7
20260507182242 18 253 6.4 16.1 0.00 0.00 0.00 39 1011.3
20260507181739 17 262 14.5 22.5 0.00 0.00 0.00 38 1011.3
20260507181235 18 257 3.2 12.9 0.00 0.00 0.00 41 1011.3
20260507180732 18 255 4.8 16.1 0.00 0.00 0.00 36 1011.6
20260507180229 18 317 9.7 16.1 0.00 0.00 0.00 39 1011.7
20260507175724 17 299 9.7 17.7 0.00 0.00 0.00 37 1011.6
20260507175221 17 207 6.4 16.1 0.00 0.00 0.00 40 1011.7
20260507174719 18 246 6.4 11.3 0.00 0.00 0.00 37 1011.7
20260507174217 17 286 6.4 11.3 0.00 0.00 0.00 42 1011.7
20260507173715 17 300 8.0 16.1 0.00 0.00 0.00 39 1012.0
20260507173211 18 181 0.0 3.2 0.00 0.00 0.00 41 1012.1
20260507172708 18 291 6.4 6.4 0.00 0.00 0.00 41 1012.1
20260507172204 17 304 11.3 17.7 0.00 0.00 0.00 44 1012.0
20260507171658 17 220 3.2 16.1 0.00 0.00 0.00 44 1012.3
20260507171155 17 275 9.7 14.5 0.00 0.00 0.00 43 1012.3
20260507170652 17 298 6.4 16.1 0.00 0.00 0.00 43 1012.5
20260507170150 17 247 3.2 14.5 0.00 0.00 0.00 49 1012.4
20260507165645 17 25 3.2 17.7 0.00 0.00 0.00 45 1012.7
20260507165142 17 289 14.5 17.7 0.00 0.00 0.00 44 1012.8
20260507164637 17 289 4.8 20.9 0.00 0.00 0.00 46 1012.8
20260507164136 17 311 8.0 12.9 0.00 0.00 0.00 46 1012.8
20260507163632 16 91 4.8 16.1 0.00 0.00 0.00 45 1012.8
20260507163130 16 265 6.4 9.7 0.00 0.00 0.00 49 1012.8
20260507162626 16 256 6.4 20.9 0.00 0.00 0.00 47 1013.0
20260507162122 16 244 6.4 17.7 0.00 0.00 0.00 48 1013.2
20260507161618 16 299 8.0 12.9 0.00 0.00 0.00 48 1013.1
20260507161115 16 346 8.0 12.9 0.00 0.00 0.00 50 1013.2
20260507160611 16 277 9.7 14.5 0.00 0.00 0.00 47 1013.3
20260507160108 16 339 8.0 12.9 0.00 0.00 0.00 48 1013.4
20260507155603 16 258 9.7 12.9 0.00 0.00 0.00 51 1013.4
20260507155100 16 261 4.8 17.7 0.00 0.00 0.00 48 1013.5
20260507154557 16 281 4.8 12.9 0.00 0.00 0.00 50 1013.6
20260507154054 16 112 1.6 12.9 0.00 0.00 0.00 52 1013.5
20260507153551 16 310 3.2 9.7 0.00 0.00 0.00 49 1013.5
20260507153047 15 305 1.6 9.7 0.00 0.00 0.00 50 1013.4
20260507152543 15 328 3.2 4.8 0.00 0.00 0.00 55 1013.5
20260507152040 15 251 3.2 4.8 0.00 0.00 0.00 52 1013.8
20260507151536 14 354 4.8 6.4 0.00 0.00 0.00 56 1014.0
20260507151033 13 250 3.2 4.8 0.00 0.00 0.00 53 1014.0
20260507150530 14 298 4.8 11.3 0.00 0.00 0.00 55 1014.1
20260507150027 13 290 0.0 6.4 0.00 0.00 0.00 54 1014.3
20260507145521 13 261 1.6 4.8 0.00 0.00 0.00 56 1014.3
20260507145020 13 260 6.4 9.7 0.00 0.00 0.00 55 1014.5
20260507144516 13 228 3.2 11.3 0.00 0.00 0.00 55 1014.7
20260507144014 14 237 6.4 11.3 0.00 0.00 0.00 55 1014.6
20260507143511 13 311 8.0 11.3 0.00 0.00 0.00 56 1014.5
20260507143008 13 323 4.8 9.7 0.00 0.00 0.00 61 1014.8
20260507142503 12 168 4.8 12.9 0.00 0.00 0.00 64 1014.6
20260507142000 12 108 3.2 6.4 0.00 0.00 0.00 67 1014.7
20260507141456 12 69 4.8 9.7 0.00 0.00 0.00 68 1014.9
20260507140953 12 61 1.6 4.8 0.00 0.00 0.00 69 1015.1
20260507140450 11 33 3.2 4.8 0.00 0.00 0.00 72 1014.9
20260507135947 11 83 3.2 6.4 0.00 0.00 0.00 73 1015.1
20260507135444 11 83 4.8 6.4 0.00 0.00 0.00 72 1015.1
20260507134941 11 51 6.4 6.4 0.00 0.00 0.00 72 1015.1
20260507134438 11 42 4.8 4.8 0.00 0.00 0.00 74 1015.3
20260507133934 11 95 6.4 6.4 0.00 0.00 0.00 75 1015.3
20260507133430 10 46 3.2 4.8 0.00 0.00 0.00 73 1015.4
20260507132929 11 63 4.8 6.4 0.00 0.00 0.00 73 1015.3
20260507132424 11 58 4.8 6.4 0.00 0.00 0.00 75 1015.5
20260507131921 10 28 4.8 6.4 0.00 0.00 0.00 73 1015.5
20260507131418 10 39 6.4 6.4 0.00 0.00 0.00 73 1015.5
20260507130915 10 71 1.6 3.2 0.00 0.00 0.00 75 1015.4
20260507130412 10 64 3.2 4.8 0.00 0.00 0.00 75 1015.4
20260507125911 10 53 3.2 4.8 0.00 0.00 0.00 74 1015.6
20260507125408 10 332 3.2 4.8 0.00 0.00 0.00 74 1015.4
20260507124906 10 335 3.2 4.8 0.00 0.00 0.00 75 1015.4
20260507124401 10 303 1.6 3.2 0.00 0.00 0.00 76 1015.5
20260507123900 10 299 1.6 3.2 0.00 0.00 0.00 75 1015.7
20260507123357 9 343 3.2 6.4 0.00 0.00 0.00 74 1015.6
20260507122853 9 345 3.2 6.4 0.00 0.00 0.00 75 1015.7
20260507122349 10 7 1.6 3.2 0.00 0.00 0.00 74 1015.5
20260507121845 10 68 3.2 4.8 0.00 0.00 0.00 74 1015.5
20260507121340 10 64 3.2 4.8 0.00 0.00 0.00 72 1015.6
20260507120837 10 287 0.0 4.8 0.00 0.00 0.00 70 1015.7
20260507120334 10 353 3.2 6.4 0.00 0.00 0.00 68 1015.6
20260507115830 10 264 3.2 6.4 0.00 0.00 0.00 70 1015.4
20260507115326 10 258 3.2 12.9 0.00 0.00 0.00 71 1015.4
20260507114822 10 328 4.8 9.7 0.00 0.00 0.00 73 1015.3
20260507114319 10 218 6.4 11.3 0.00 0.00 0.00 76 1015.3
20260507113817 10 298 1.6 1.6 0.00 0.00 0.00 80 1015.1
20260507113313 10 282 0.0 1.6 0.00 0.00 0.00 80 1015.2
20260507112811 9 297 3.2 3.2 0.00 0.00 0.00 82 1015.1
20260507112308 9 325 1.6 3.2 0.00 0.00 0.00 87 1015.0
20260507111806 9 82 0.0 0.0 0.00 0.00 0.00 86 1014.9
20260507111302 9 96 0.0 0.0 0.00 0.00 0.00 87 1015.1
20260507110758 9 96 0.0 0.0 0.00 0.00 0.00 86 1014.9
20260507110255 9 55 1.6 1.6 0.00 0.00 0.00 86 1014.8
20260507105752 9 311 1.6 3.2 0.00 0.00 0.00 86 1015.0
20260507105247 9 302 1.6 3.2 0.00 0.00 0.00 86 1014.9
20260507104745 9 30 1.6 4.8 0.00 0.00 0.00 86 1014.8
20260507104236 9 33 3.2 4.8 0.00 0.00 0.00 87 1014.9
20260507103732 10 75 0.0 1.6 0.00 0.00 0.00 87 1014.7
20260507103229 10 35 0.0 0.0 0.00 0.00 0.00 86 1014.6
20260507102725 10 34 0.0 0.0 0.00 0.00 0.00 84 1014.6
20260507102221 10 34 0.0 0.0 0.00 0.00 0.00 84 1014.6
20260507101717 10 34 3.2 3.2 0.00 0.00 0.00 83 1014.4
20260507101213 10 17 1.6 3.2 0.00 0.00 0.00 82 1014.4
20260507100711 10 11 1.6 3.2 0.00 0.00 0.00 82 1014.4
20260507100209 10 299 0.0 0.0 0.00 0.00 0.00 83 1014.2
20260507095707 10 316 0.0 1.6 0.00 0.00 0.00 81 1014.2
20260507095203 10 316 1.6 1.6 0.00 0.00 0.00 81 1014.1
20260507094700 10 348 3.2 4.8 0.00 0.00 0.00 80 1014.1
20260507094156 10 327 0.0 3.2 0.00 0.00 0.00 80 1014.0
20260507093654 10 304 1.6 3.2 0.00 0.00 0.00 81 1014.2
20260507093152 10 288 3.2 3.2 0.00 0.00 0.00 81 1014.3
20260507092649 10 280 0.0 1.6 0.00 0.00 0.00 81 1014.2
20260507092146 10 281 1.6 3.2 0.00 0.00 0.00 81 1014.2
20260507091642 10 280 0.0 1.6 0.00 0.00 0.00 83 1014.4
20260507091138 10 279 0.0 0.0 0.00 0.00 0.00 83 1014.4
20260507090634 10 279 0.0 0.0 0.00 0.00 0.00 84 1014.2
20260507090132 10 279 0.0 1.6 0.00 0.00 0.00 83 1014.2
20260507085628 10 279 1.6 1.6 0.00 0.00 0.00 83 1014.1
20260507085125 10 300 0.0 0.0 0.00 0.00 0.00 82 1014.0
20260507084622 10 295 0.0 0.0 0.00 0.00 0.00 82 1014.2
20260507084118 10 295 3.2 3.2 0.00 0.00 0.00 83 1014.3
20260507083615 10 252 0.0 0.0 0.00 0.00 0.00 82 1014.4
20260507083112 10 252 0.0 0.0 0.00 0.00 0.00 83 1014.3
20260507082608 10 252 0.0 0.0 0.00 0.00 0.00 81 1014.5
20260507082104 10 252 0.0 0.0 0.00 0.00 0.00 80 1014.4
20260507081601 10 252 0.0 0.0 0.00 0.00 0.00 79 1014.4
20260507081058 10 252 0.0 0.0 0.00 0.00 0.00 78 1014.2
20260507080554 10 245 0.0 0.0 0.00 0.00 0.00 78 1014.1
20260507080050 10 246 0.0 1.6 0.00 0.00 0.00 78 1014.0
20260507075545 10 250 1.6 3.2 0.00 0.00 0.00 77 1014.3
20260507075042 10 261 1.6 3.2 0.00 0.00 0.00 78 1014.2
20260507074539 10 241 0.0 0.0 0.00 0.00 0.00 78 1014.1
20260507074037 10 281 1.6 3.2 0.00 0.00 0.00 77 1014.2
20260507073533 10 330 1.6 4.8 0.00 0.00 0.00 78 1014.2
20260507073030 10 32 3.2 4.8 0.00 0.00 0.00 77 1014.1
20260507072527 10 25 0.0 0.0 0.00 0.00 0.00 78 1014.1
20260507072025 10 41 0.0 0.0 0.00 0.00 0.00 78 1014.0
20260507071522 10 41 0.0 0.0 0.00 0.00 0.00 78 1014.1
20260507071018 10 94 0.0 0.0 0.00 0.00 0.00 79 1014.0
20260507070516 10 94 0.0 1.6 0.00 0.00 0.00 78 1014.3
20260507070014 10 65 3.2 4.8 0.00 0.00 0.00 78 1014.2
20260507065509 10 40 3.2 3.2 0.00 0.00 0.00 77 1014.1
20260507065006 10 350 1.6 4.8 0.00 0.00 0.00 76 1014.0
20260507064504 10 81 1.6 3.2 0.00 0.00 0.00 79 1014.0
20260507064002 10 116 3.2 9.7 0.00 0.00 0.00 76 1013.6
20260507063458 10 114 8.0 9.7 0.00 0.00 0.00 76 1013.8
20260507062956 10 339 6.4 6.4 0.00 0.00 0.00 76 1014.2
20260507062453 11 54 0.0 1.6 0.00 0.00 0.00 75 1014.4
20260507061950 11 323 3.2 3.2 0.00 0.00 0.00 75 1014.3
20260507061448 11 320 1.6 9.7 0.00 0.00 0.00 75 1014.3
20260507060946 11 310 3.2 4.8 0.00 0.00 0.00 75 1014.4
20260507060443 11 314 6.4 6.4 0.00 0.00 0.00 75 1014.5
20260507055939 11 351 16.1 17.7 0.00 0.00 0.00 75 1014.4
20260507055434 11 277 6.4 11.3 0.00 0.00 0.00 75 1014.5
20260507054932 11 132 4.8 20.9 0.00 0.00 0.00 76 1014.2
20260507054427 11 25 11.3 20.9 0.00 0.00 0.00 76 1014.5
20260507053924 11 301 9.7 14.5 0.00 0.00 0.00 77 1014.4
20260507053422 11 351 11.3 16.1 0.00 0.00 0.00 77 1014.5
20260507052921 11 4 3.2 4.8 0.00 0.00 0.00 77 1014.5
20260507052418 11 332 4.8 9.7 0.00 0.00 0.00 77 1014.4
20260507051915 11 221 8.0 11.3 0.00 0.00 0.00 77 1014.3
20260507051413 11 239 3.2 11.3 0.00 0.00 0.00 77 1014.2
20260507050910 11 293 8.0 20.9 0.00 0.00 0.00 77 1014.2
20260507050406 12 320 3.2 17.7 0.00 0.00 0.00 77 1014.2
20260507045903 12 273 3.2 11.3 0.00 0.00 0.00 80 1014.3
20260507045359 12 201 6.4 14.5 0.00 0.00 0.00 78 1014.3
20260507044856 12 299 8.0 17.7 0.00 0.00 0.00 78 1014.0
20260507044353 12 39 3.2 16.1 0.00 0.00 0.00 78 1014.0
20260507043849 12 225 1.6 6.4 0.00 0.00 0.00 79 1013.6
20260507043345 12 276 6.4 6.4 0.00 0.00 0.00 80 1013.6
20260507042842 12 9 3.2 12.9 0.00 0.00 0.00 81 1013.6
20260507042338 12 15 4.8 9.7 0.00 0.00 0.00 82 1013.8
20260507041835 12 291 1.6 9.7 0.00 0.00 0.00 82 1013.8
20260507041331 12 279 4.8 9.7 0.00 0.00 0.00 81 1013.8
20260507040828 13 262 1.6 3.2 0.00 0.00 0.00 81 1013.6
20260507040324 13 308 6.4 12.9 0.00 0.00 0.00 79 1013.8
20260507035820 13 300 3.2 9.7 0.00 0.13 0.13 79 1014.2
20260507035315 13 305 9.7 12.9 0.00 0.13 0.13 79 1014.1
20260507034814 13 310 9.7 12.9 0.00 0.13 0.13 79 1013.7
20260507034310 13 301 4.8 6.4 0.00 0.13 0.13 79 1012.8
20260507033808 13 277 3.2 12.9 0.00 0.13 0.13 78 1013.5
20260507033306 13 264 4.8 9.7 0.00 0.13 0.13 79 1014.0
20260507032802 13 219 6.4 12.9 0.00 0.13 0.13 78 1014.4
20260507032258 13 260 0.0 4.8 0.00 0.13 0.13 79 1014.4
20260507031755 13 263 4.8 6.4 0.00 0.13 0.13 79 1014.1
20260507031252 13 239 0.0 3.2 0.00 0.13 0.13 80 1013.2
20260507030749 13 303 3.2 6.4 0.00 0.13 0.13 80 1013.1
20260507030246 13 258 4.8 6.4 0.00 0.13 0.13 80 1013.4
20260507025743 13 300 4.8 11.3 0.00 0.13 0.13 81 1014.1
20260507025240 13 263 3.2 6.4 0.00 0.13 0.13 81 1014.0
20260507024739 13 290 3.2 11.3 0.00 0.13 0.13 81 1013.6
20260507024235 13 293 11.3 16.1 0.00 0.13 0.13 82 1014.1
20260507023731 13 275 8.0 20.9 0.00 0.13 0.13 83 1014.4
20260507023228 13 311 9.7 12.9 0.00 0.13 0.13 83 1014.2
20260507022726 13 258 6.4 9.7 0.00 0.13 0.13 83 1013.5
20260507022221 13 259 8.0 11.3 0.00 0.13 0.13 84 1013.4
20260507021718 13 261 4.8 9.7 0.00 0.13 0.13 84 1013.8
20260507021213 13 268 6.4 9.7 0.00 0.13 0.13 85 1013.5
20260507020712 13 292 6.4 6.4 0.00 0.13 0.13 84 1013.0
20260507020207 13 297 3.2 9.7 0.00 0.13 0.13 84 1013.5
20260507015706 13 286 3.2 6.4 0.00 0.13 0.13 82 1013.5
20260507015203 13 245 1.6 11.3 0.00 0.13 0.13 83 1013.4
20260507014659 13 301 4.8 6.4 0.00 0.13 0.13 82 1013.3
20260507014155 13 235 0.0 1.6 0.00 0.13 0.13 82 1013.1
20260507013652 13 320 6.4 6.4 0.00 0.13 0.13 82 1013.1
20260507013149 13 282 1.6 4.8 0.00 0.13 0.13 81 1012.9
20260507012647 14 242 3.2 6.4 0.00 0.13 0.13 81 1013.1
20260507012142 14 257 6.4 11.3 0.00 0.13 0.13 80 1013.1
20260507011641 14 280 3.2 6.4 0.00 0.13 0.13 80 1012.9
20260507011136 14 207 3.2 4.8 0.00 0.13 0.13 80 1012.7
20260507010631 14 246 3.2 6.4 0.00 0.13 0.13 79 1012.9
20260507010122 15 244 4.8 6.4 0.00 0.13 0.13 79 1013.1
20260507005620 15 305 6.4 14.5 0.00 0.13 0.13 78 1012.8
20260507005116 15 266 6.4 9.7 0.00 0.13 0.13 77 1012.8
20260507004613 15 286 3.2 4.8 0.00 0.13 0.13 77 1012.6
20260507004110 15 247 1.6 4.8 0.00 0.13 0.13 76 1012.6
20260507003606 15 272 3.2 4.8 0.00 0.13 0.13 76 1012.8
20260507003101 15 327 1.6 4.8 0.00 0.13 0.13 74 1012.9
20260507002558 15 294 0.0 4.8 0.00 0.13 0.13 74 1013.0
20260507002053 15 259 3.2 4.8 0.00 0.13 0.13 75 1013.3
20260507001551 15 245 3.2 11.3 0.00 0.13 0.13 75 1013.3
20260507001048 15 253 6.4 9.7 0.00 0.13 0.13 74 1013.3
20260507000544 16 264 3.2 6.4 0.00 0.13 0.13 74 1013.0
20260507000039 16 322 3.2 6.4 0.00 0.13 0.13 74 1012.9
20260506235537 16 302 6.4 9.7 0.00 0.13 0.13 74 1013.0
20260506235032 16 303 3.2 3.2 0.00 0.13 0.13 78 1012.9
20260506234531 16 272 1.6 1.6 0.00 0.13 0.13 77 1013.0
20260506234027 16 229 0.0 0.0 0.00 0.13 0.13 74 1012.9
20260506233524 16 231 3.2 3.2 0.00 0.13 0.13 74 1012.9
20260506233021 16 305 1.6 4.8 0.00 0.13 0.13 73 1012.8
20260506232517 16 234 8.0 9.7 0.00 0.13 0.13 72 1012.6
20260506232012 16 295 4.8 6.4 0.00 0.13 0.13 73 1012.6